Home > Weather > Lillesand > Past weeks

Flag for Norway Weather for the Past 2 Weeks in Lillesand, Norway

Now
28 °F

Chilly.


Feels Like: 24 °F
Forecast: 23 / 32 °F
Wind: 3 mph from Northeast

Location: Kristiansand / Kjevik

Current Time: Feb 11, 2016 at 10:58:37 PM

Latest Report: Feb 11, 2016 at 9:00 PM


Visibility: N/A

Pressure: 29.63 "Hg

Humidity: 91%

Dew point: 25 °F

Location of LillesandLocation

Historic Weather in Lillesand — Graph

°F

Lillesand Temperature Yesterday

Maximum temperature yesterday: 40 °F (at 3:00 PM)
Minimum temperature yesterday: 36 °F (at 8:00 AM)
Average temperature yesterday: 38 °F

High & Low Weather Summary for the Past Weeks

 TemperatureHumidityPressure
High48 °F (Feb 1, 4:00 PM)98% (Jan 27, 9:00 PM)30.00 "Hg (Jan 27, 9:00 PM)
Low27 °F (Feb 5, 1:00 AM)45% (Feb 4, 3:00 PM)28.73 "Hg (Feb 8, 11:00 AM)
Average39 °F83%29.32 "Hg
* Reported Jan 27 9:00 PM — Feb 11 9:00 PM, Lillesand, Weather by CustomWeather, © 2016

Note: Actual official high and low records may vary slightly from our data, if they occured in-between our weather recording intervals... More about our weather records

Advertising

Lillesand Weather History for the Previous 24 Hours

 ConditionsComfort  
Time TempWeatherWind HumidityBarometerVisibility
9:00 PM
Thu, Feb 11
28 °FChilly.3 mph91%29.63 "HgN/A
8:00 PM28 °FChilly.2 mph87%29.62 "HgN/A
7:00 PM31 °FChilly.2 mph78%29.60 "HgN/A
6:00 PM36 °FChilly.2 mph54%29.59 "HgN/A
5:00 PM37 °FChilly.3 mph56%29.57 "HgN/A
4:00 PM38 °FChilly.5 mph57%29.56 "HgN/A
3:00 PM37 °FChilly.5 mph63%29.54 "HgN/A
2:00 PM37 °FChilly.3 mph63%29.54 "HgN/A
1:00 PM36 °FChilly.5 mph72%29.50 "HgN/A
12:00 PM36 °FChilly.3 mph75%29.50 "HgN/A
11:00 AM34 °FChilly.2 mph94%29.50 "HgN/A
10:00 AM33 °FChilly.1 mph96%29.47 "HgN/A
9:00 AM33 °FChilly.2 mph96%29.44 "HgN/A
8:00 AM32 °FChilly.2 mph96%29.44 "HgN/A
7:00 AM33 °FChilly.3 mph97%29.41 "HgN/A
6:00 AM32 °FChilly.2 mph97%29.38 "HgN/A
5:00 AM32 °FChilly.2 mph97%29.38 "HgN/A
Weather by CustomWeather, © 2016

See weather overviewHow to use our weather pages